User: anonymous   Login
Location: Arrakis Observatory
(44.1122°N, 95.7153°W)
Time: 04:32:43
(UTC-05:00)
Language:

Iridium 35 - Orbit

View from above orbital plane
View from above orbital plane
View from above satellite
View from above satellite

Ground track
Ground track

The orbit data is extracted from the following two-line orbital elements,

1 24966U 97056B   14296.23652974  .00000730  00000-0  25364-3 0   381
2 24966 086.3989 003.3053 0002274 109.6583 250.4859 14.34218036893794
Epoch (UTC): 23 October 2014 05:40:36
Eccentricity: 0.0002274
inclination: 86.3989°
perigee height: 776 km
apogee height: 779 km
right ascension of ascending node: 3.3053°
argument of perigee: 109.6583°
revolutions per day: 14.34218036
mean anomaly at epoch: 250.4859°
orbit number at epoch: 89379

The dashed part of the orbit path shows where the satellite is in the earth's shadow,  

DLR